Regional Weather Roundup
Issued by NWS

Home | Current Version | Previous Version | Text Only | Print | Product List | Glossary On
Versions: 1 2 3 4 5 6 7 8 9 10 11 12 13 14 15 16 17 18 19 20 21 22 23 24 25 26 27 28 29 30 31 32 33 34 35 36 37 38 39 40 41 42 43 44 45 46 47 48 49 50
000
ASCA44 KEWX 300720
RWRMX

LATIN AMERICA AND CARIBBEAN REGIONAL WEATHER ROUNDUP
NATIONAL WEATHER SERVICE AUSTIN/SAN ANTONIO TX
200 AM CDT SAT MAY 30 2015

NOTE: "FAIR" INDICATED FEW OR NO CLOUDS BELOW 12,000 FEET WITH NO
SIGNIFICANT WEATHER AND/OR OBSTRUCTIONS TO VISIBILITY.

BAJA CALIFORNIA

CITY           SKY/WX    TMP DP  RH WIND       PRES   REMARKS
LA PAZ           N/A    N/A N/A N/A MISG        N/A
TIJUANA        PTCLDY    59  54  82 W5        29.95F

NORTHWESTERN MEXICO

CITY           SKY/WX    TMP DP  RH WIND       PRES   REMARKS
HERMOSILLO     CLEAR     79  46  31 CALM      29.91R

NORTHEASTERN MEXICO

CITY           SKY/WX    TMP DP  RH WIND       PRES   REMARKS
MATAMOROS      CLEAR     77  77 100 CALM      29.98S
MONTERREY      MOCLDY    72  70  94 E6        29.94F

WESTERN MEXICO

CITY           SKY/WX    TMP DP  RH WIND       PRES   REMARKS
DEL BAJIO      CLOUDY    59  55  88 W8        30.34F
GUADALAJARA    MOCLDY    63  55  77 E5        30.22S
MAZATLAN       MOCLDY    73  64  73 E7        29.90R
P. VALLARTA    CLOUDY    77  63  61 NE5       29.90F
ZACATECAS      MOCLDY    57  48  72 CALM      30.31F

CENTRAL MEXICO

CITY           SKY/WX    TMP DP  RH WIND       PRES   REMARKS
MEXICO CITY    CLOUDY    59  52  77 W5        30.32F
QUERETARO        N/A    N/A N/A N/A MISG        N/A
S. LUIS POTOSI MOCLDY    61  55  82 CALM      30.25F
TOLUCA         CLOUDY    54  46  76 W6        30.39F

SOUTHERN MEXICO

CITY           SKY/WX    TMP DP  RH WIND       PRES   REMARKS
ACAPULCO       CLOUDY    81  75  83 CALM      29.89F
VERACRUZ         N/A    N/A N/A N/A MISG        N/A

YUCATAN PENINSULA

CITY           SKY/WX    TMP DP  RH WIND       PRES   REMARKS
CANCUN         CLEAR     79  73  83 E6        29.95F
COZUMEL        PTCLDY    72  72 100 CALM      29.94F
MERIDA         PTCLDY    81  72  74 E9        29.95F
TAPACHULA      MOCLDY    77  75  94 E7        29.90F

CENTRAL AMERICA

CITY           SKY/WX    TMP DP  RH WIND       PRES   REMARKS
MANAGUA        MOSUNNY   79  70  73 E7        29.83F

CARIBBEAN

CITY           SKY/WX    TMP DP  RH WIND       PRES   REMARKS
ARUBA          PTCLDY    81  77  89 E13       29.86S
CURACAO        PTCLDY    81  77  89 E9        29.89
KINGSTON       PTCLDY    81  72  74 N5        29.92S
NASSAU         PTCLDY    75  68  78 CALM      30.02F
SAN JUAN       PTCLDY    77  73  88 CALM      29.96F
SANTO DOMINGO  TSTM      72  70  94 NE8       29.94S
ST. CROIX      LGT RAIN  73  72  94 N6        29.96
ST. MAARTEN    MOCLDY    81  75  83 E8        29.94F
ST. THOMAS     MOCLDY    79  73  83 E5        29.96

$$




USA.gov is the U.S. government's official web portal to all federal, state and local government web resources and services.